Tracking 18852 objects as of 24-Nov-2017
HD Live streaming from Space Station
objects crossing your sky now

COSMOS 2494 (SKRL 756)

Track COSMOS 2494 (SKRL 756) now!
10-day predictions
COSMOS 2494 (SKRL 756) is classified as:


NORAD ID: 39491
Int'l Code: 2013-078B
Perigee: 591.3 km
Apogee: 621.4 km
Inclination: 82.4 °
Period: 96.7 minutes
Semi major axis: 6977 km
RCS: Unknown
Launch date: December 28, 2013
Source: Commonwealth of Independent States (former USSR) (CIS)
Launch site: PLESETSK MISSILE AND SPACE COMPLEX (PKMTR)
aabbcc
Your satellite tracking list
Your tracking list is empty




NASA's NSSDC Master Catalog

Two Line Element Set (TLE):
1 39491U 13078B   17327.82405180  .00000401  00000-0  39275-4 0  9998
2 39491  82.4204  26.5913 0021594 207.3797 152.6285 14.89594623212162
Source of the keplerian elements: AFSPC